Location: 10033 Water Well
(34.0865°N, 106.8959°W)
Time: 16:56:14
(UTC+00:00)

Cosmos 2366 rocket - Pass Details

Date: 13 January 2026
Orbit: 955 x 995 km, 82.9° (Epoch: 10 February)

Event Time Altitude Azimuth Distance (km) Brightness Sun altitude
Rises 00:45:58 0° 1° (N) 3,709 6.8 -6.0°
Reaches altitude 10° 00:48:37 10° 7° (N) 2,760 6.1 -6.5°
Maximum altitude 00:54:41 46° 80° (E) 1,316 4.3 -7.7°
Drops below altitude 10° 01:00:42 10° 152° (SSE) 2,751 6.3 -8.8°
Sets 01:03:20 0° 158° (SSE) 3,695 7.0 -9.3°
